Location: Warszawa
(52.2500°N, 21.0000°E)
Time: 20:50:29
(UTC+02:00)

Vanguard 2 - Pass Details

Date: 31 January 2023
Orbit: 553 x 2927 km, 32.9° (Epoch: 27 March)

Event Time Altitude Azimuth Distance (km) Brightness Sun altitude
Exits shadow 01:37:27 20° 138° (SE) 4,514 11.3 -49.3°
Drops below altitude 10° 01:41:01 10° 128° (SE) 5,073 11.7 -48.9°
Sets 01:44:54 0° 121° (ESE) 5,804 12.1 -48.5°
